Weather reports worldwide

Advertisment
Topcliffe, United Kingdom (3265): temperature & dewpoint: 17.03.2019 09:00:00 - 23.03.2019 09:00:00 (GMT)Topcliffe, United Kingdom (3265): wind speed & gusts: 17.03.2019 09:00:00 - 23.03.2019 09:00:00 (GMT)Topcliffe, United Kingdom (3265): wind direction: 17.03.2019 09:00:00 - 23.03.2019 09:00:00 (GMT)Topcliffe, United Kingdom (3265): reduced air pressure: 17.03.2019 09:00:00 - 23.03.2019 09:00:00 (GMT)Topcliffe, United Kingdom (3265): visibility: 17.03.2019 09:00:00 - 23.03.2019 09:00:00 (GMT)Topcliffe, United Kingdom (3265): precipitation: 17.03.2019 09:00:00 - 23.03.2019 09:00:00 (GMT)
Date & Time tt [°C] td [°C] ff [km/h] ff [kn] fx [km/h] fx [kn] dd ppp [hPa] vv [km] rr [mm]
23.03.2019 09:00:00 6,7 1,0 5 3 - - W 1032,7 18 0,0
23.03.2019 08:00:00 5,9 0,8 9 5 - - W 1031,8 30 0,0
23.03.2019 07:00:00 5,1 0,8 8 4 - - W 1031,3 27 0,0
23.03.2019 06:00:00 4,0 0,9 5 3 - - WSW 1030,4 35 0,0
23.03.2019 05:00:00 5,5 0,9 9 5 - - W 1029,6 25 0,0
23.03.2019 04:00:00 6,1 1,3 13 7 - - W 1028,9 27 0,0
23.03.2019 03:00:00 5,6 1,8 8 4 - - WSW 1028,5 35 0,0
23.03.2019 02:00:00 6,5 2,3 5 3 - - W 1027,9 29 0,0
23.03.2019 01:00:00 7,6 2,7 11 6 - - WNW 1027,4 30 0,0
23.03.2019 00:00:00 8,4 4,1 16 9 - - W 1026,6 40 0,0
22.03.2019 23:00:00 9,0 4,8 13 7 - - WNW 1026,1 35 0,0
22.03.2019 22:00:00 9,6 5,6 18 10 - - W 1025,4 45 0,0
22.03.2019 21:00:00 10,1 7,0 15 8 - - W 1024,8 50 0,0
22.03.2019 20:00:00 10,2 8,2 21 11 - - WSW 1023,8 50 0,0
22.03.2019 19:00:00 10,1 8,1 26 14 - - WSW 1023,3 35 0,0
22.03.2019 18:00:00 11,0 7,5 31 17 46 25 WSW 1022,5 50 0,0
22.03.2019 17:00:00 11,8 7,0 24 13 - - WSW 1022,3 45 0,0
22.03.2019 16:00:00 12,1 6,6 21 11 - - SW 1022,4 50 0,0
22.03.2019 15:00:00 11,8 6,2 26 14 - - WSW 1022,7 45 0,0
22.03.2019 14:00:00 12,5 6,2 24 13 46 25 WSW 1022,5 50 0,0
22.03.2019 13:00:00 12,1 6,3 28 15 - - SW 1022,6 21 0,0
22.03.2019 12:00:00 11,7 6,7 22 12 - - SW 1023,0 45 0,0
22.03.2019 11:00:00 12,2 7,2 22 12 - - SSW 1023,0 24 0,0
22.03.2019 10:00:00 12,0 6,9 28 15 - - SW 1023,7 35 0,0
22.03.2019 09:00:00 11,2 8,2 15 8 - - S 1024,1 16 0,0
22.03.2019 08:00:00 10,9 7,6 13 7 - - S 1024,5 45 0,0
22.03.2019 07:00:00 10,9 7,2 28 15 - - SW 1025,0 45 0,0
22.03.2019 06:00:00 11,1 8,6 26 14 - - SSW 1024,7 19 0,0
22.03.2019 05:00:00 10,6 8,4 15 8 - - SSE 1025,2 17 0,0
22.03.2019 04:00:00 10,5 8,4 15 8 - - S 1025,9 15 0,0
22.03.2019 03:00:00 10,5 8,3 15 8 - - S 1026,6 11 0,0
22.03.2019 02:00:00 10,0 8,6 13 7 - - S 1027,2 11 0,0
22.03.2019 01:00:00 9,4 8,4 13 7 - - SSE 1027,9 12 0,0
22.03.2019 00:00:00 8,9 8,2 13 7 - - SE 1028,6 10 0,0
21.03.2019 23:00:00 8,3 7,8 9 5 - - ESE 1029,7 17 0,0
21.03.2019 22:00:00 6,9 5,4 9 5 - - SSW 1030,1 24 0,0
21.03.2019 21:00:00 6,4 5,6 13 7 - - S 1030,2 23 0,0
21.03.2019 20:00:00 6,9 5,9 8 4 - - S 1030,9 30 0,0
21.03.2019 19:00:00 8,3 6,7 5 3 - - S 1030,9 27 0,0
21.03.2019 18:00:00 12,1 8,3 11 6 - - SW 1030,6 45 0,0
21.03.2019 17:00:00 14,3 8,5 8 4 - - SW 1030,6 35 0,0
21.03.2019 16:00:00 15,2 8,9 15 8 - - WSW 1030,5 28 0,0
21.03.2019 15:00:00 15,8 8,8 11 6 - - WSW 1030,6 50 0,0
21.03.2019 14:00:00 15,4 8,9 11 6 - - SW 1031,0 45 0,0
21.03.2019 13:00:00 15,7 10,0 15 8 - - SW 1031,4 40 0,0
21.03.2019 12:00:00 14,6 8,7 16 9 - - W 1031,4 27 0,0
21.03.2019 11:00:00 13,7 8,3 21 11 - - W 1031,5 50 0,0
21.03.2019 10:00:00 13,5 8,2 11 6 - - NW 1031,3 40 0,0
21.03.2019 09:00:00 12,9 8,2 18 10 - - W 1031,1 45 0,0
21.03.2019 08:00:00 12,0 7,9 24 13 - - WSW 1030,5 50 0,0
21.03.2019 07:00:00 10,8 8,0 13 7 - - SW 1030,0 40 0,0
21.03.2019 06:00:00 9,6 8,1 13 7 - - SSW 1029,5 23 0,0
21.03.2019 05:00:00 10,2 8,8 9 5 - - SE 1029,3 29 0,0
21.03.2019 04:00:00 10,6 8,7 16 9 - - SW 1028,8 40 0,0
21.03.2019 03:00:00 10,5 8,7 13 7 - - SSW 1028,9 19 0,0
21.03.2019 02:00:00 10,3 8,4 9 5 - - SW 1029,4 29 0,0
21.03.2019 01:00:00 9,9 8,0 18 10 - - S 1029,6 29 0,0
21.03.2019 00:00:00 10,8 8,2 16 9 - - SW 1030,1 35 0,0
20.03.2019 23:00:00 10,3 8,7 18 10 - - SSE 1029,8 17 0,0
20.03.2019 22:00:00 10,6 8,4 11 6 - - SSW 1029,7 35 0,0
20.03.2019 21:00:00 10,4 8,6 5 3 - - S 1029,8 45 0,0
20.03.2019 20:00:00 10,0 7,5 2 1 - - NE 1029,6 45 0,0
20.03.2019 19:00:00 12,6 8,6 15 8 - - W 1029,2 50 0,0
20.03.2019 18:00:00 13,9 9,6 15 8 - - SW 1028,8 50 0,0
20.03.2019 17:00:00 14,6 9,8 16 9 - - W 1029,0 50 0,0
20.03.2019 16:00:00 15,1 10,1 18 10 - - WSW 1029,0 35 0,0
20.03.2019 15:00:00 14,6 9,4 18 10 - - WSW 1029,3 26 0,0
20.03.2019 14:00:00 13,2 9,7 22 12 46 25 WSW 1029,4 25 0,0
20.03.2019 13:00:00 12,3 9,4 18 10 - - SW 1029,7 16 0,0
20.03.2019 12:00:00 12,5 9,4 16 9 - - SW 1029,9 23 0,0
20.03.2019 11:00:00 12,3 9,0 16 9 - - W 1029,8 40 0,0
20.03.2019 10:00:00 12,7 8,9 22 12 - - SW 1029,8 29 0,0
20.03.2019 09:00:00 12,3 9,1 21 11 - - SW 1029,4 19 0,0
20.03.2019 08:00:00 11,1 9,0 16 9 - - WSW 1028,9 23 0,0
20.03.2019 07:00:00 10,1 8,5 16 9 - - SW 1028,1 16 0,0
20.03.2019 06:00:00 10,2 8,5 26 14 - - SW 1027,7 29 0,0
20.03.2019 05:00:00 10,3 8,4 5 3 - - SW 1027,4 40 0,0
20.03.2019 04:00:00 11,0 8,7 15 8 - - WSW 1026,7 40 0,0
20.03.2019 03:00:00 8,4 7,4 0 0 - - N 1026,7 16 0,0
20.03.2019 02:00:00 9,8 9,5 5 3 - - WSW 1026,9 40 0,0
20.03.2019 01:00:00 8,2 7,8 5 3 - - SE 1027,0 22 0,0
20.03.2019 00:00:00 7,3 6,1 5 3 - - ESE 1026,8 13 0,0
19.03.2019 23:00:00 9,1 8,2 8 4 - - S 1026,4 40 0,0
19.03.2019 22:00:00 6,1 5,2 11 6 - - SE 1026,1 50 0,0
19.03.2019 21:00:00 8,5 6,7 13 7 - - SSW 1025,6 50 0,0
19.03.2019 20:00:00 10,0 7,3 15 8 - - WSW 1025,7 50 0,0
19.03.2019 19:00:00 10,0 6,9 11 6 - - WSW 1025,5 50 0,0
19.03.2019 18:00:00 10,9 7,0 21 11 - - WSW 1025,2 50 0,0
19.03.2019 17:00:00 11,2 6,9 15 8 - - WSW 1024,7 35 0,0
19.03.2019 16:00:00 11,3 6,3 18 10 - - WSW 1024,1 40 0,0
19.03.2019 15:00:00 - - 26 14 - - WSW - 35 0,0
19.03.2019 14:00:00 - - 18 10 - - SW - 35 0,0
19.03.2019 13:00:00 - - 18 10 - - WSW - 30 0,0
19.03.2019 12:00:00 11,7 7,1 18 10 - - SW 1024,5 40 0,0
19.03.2019 11:00:00 11,0 7,5 15 8 - - SW 1024,7 35 0,0
19.03.2019 10:00:00 9,7 7,8 13 7 - - S 1024,4 12 0,0
19.03.2019 09:00:00 7,7 6,8 11 6 - - SE 1024,6 15 0,0
19.03.2019 08:00:00 6,0 6,0 8 4 - - SE 1024,3 10 0,0
19.03.2019 07:00:00 4,0 4,0 8 4 - - ESE 1024,2 2,2 0,0
19.03.2019 06:00:00 2,7 2,4 9 5 - - SE 1023,4 0,1 0,0
19.03.2019 05:00:00 5,3 5,1 8 4 - - SE 1023,6 3,1 0,0
19.03.2019 04:00:00 5,0 4,6 5 3 - - SE 1023,5 5 0,0
19.03.2019 03:00:00 5,6 4,9 5 3 - - SE 1023,2 6 0,0
19.03.2019 02:00:00 6,3 5,3 4 2 - - E 1023,2 20 0,0
19.03.2019 01:00:00 7,0 5,5 5 3 - - SW 1022,9 35 0,0
19.03.2019 00:00:00 7,0 5,6 9 5 - - SW 1022,8 28 0,0
18.03.2019 23:00:00 6,9 5,7 8 4 - - SSW 1022,4 40 0,0
18.03.2019 22:00:00 6,9 5,3 5 3 - - SSW 1022,2 40 0,0
18.03.2019 21:00:00 7,2 5,6 13 7 - - SW 1022,0 35 0,0
18.03.2019 20:00:00 7,8 5,1 9 5 - - SW 1021,6 50 0,0
18.03.2019 19:00:00 8,2 4,6 9 5 - - WSW 1021,0 50 0,0
18.03.2019 18:00:00 8,5 4,6 11 6 - - SW 1020,3 35 0,0
18.03.2019 17:00:00 9,1 3,3 15 8 - - WSW 1019,7 50 0,0
18.03.2019 16:00:00 9,3 3,9 15 8 - - SW 1019,2 30 0,0
18.03.2019 15:00:00 9,9 3,5 18 10 - - WSW 1018,9 50 0,0
18.03.2019 14:00:00 9,2 2,8 5 3 - - NNW 1018,7 50 0,0
18.03.2019 13:00:00 9,0 2,6 13 7 - - W 1018,7 50 0,0
18.03.2019 12:00:00 9,7 2,4 13 7 - - W 1018,4 40 0,0
18.03.2019 11:00:00 9,0 2,2 11 6 - - W 1018,4 40 0,0
18.03.2019 10:00:00 8,4 2,9 5 3 - - NW 1018,0 30 0,0
18.03.2019 09:00:00 6,0 1,5 5 3 - - NW 1017,7 28 0,0
18.03.2019 08:00:00 2,4 1,5 2 1 - - W 1017,2 30 0,0
18.03.2019 07:00:00 0,7 -1,3 5 3 - - W 1016,9 35 0,0
18.03.2019 06:00:00 2,3 -0,7 5 3 - - NW 1016,3 35 0,0
18.03.2019 05:00:00 3,5 0,8 9 5 - - W 1015,7 45 0,0
18.03.2019 04:00:00 3,3 -0,1 13 7 - - WNW 1015,2 40 0,0
18.03.2019 03:00:00 3,1 0,4 13 7 - - WNW 1014,8 50 0,0
18.03.2019 02:00:00 3,8 0,8 13 7 - - NW 1014,5 50 0,0
18.03.2019 01:00:00 4,5 1,4 13 7 - - WNW 1013,5 50 0,0
18.03.2019 00:00:00 3,3 -0,2 13 7 - - NW 1012,7 50 0,0
17.03.2019 23:00:00 4,5 1,4 11 6 - - WNW 1012,1 50 0,0
17.03.2019 22:00:00 2,0 0,1 11 6 - - S 1011,3 50 0,0
17.03.2019 21:00:00 5,3 0,7 15 8 - - WNW 1010,0 50 0,0
17.03.2019 20:00:00 6,0 2,1 24 13 - - WNW 1008,6 50 0,0
17.03.2019 19:00:00 6,2 2,4 16 9 - - WNW 1007,3 50 0,0
17.03.2019 18:00:00 7,5 2,6 24 13 46 25 WNW 1005,7 45 0,0
17.03.2019 17:00:00 9,0 1,6 28 15 46 25 WNW 1004,1 50 0,0
17.03.2019 16:00:00 8,9 1,7 26 14 48 26 W 1003,1 40 0,0
17.03.2019 15:00:00 9,3 0,0 34 18 52 28 WNW 1002,0 40 0,0
17.03.2019 14:00:00 8,6 -1,2 31 17 54 29 WNW 1001,6 40 0,0
17.03.2019 13:00:00 8,6 0,1 29 16 50 27 WNW 1001,0 50 0,0
17.03.2019 12:00:00 7,5 -0,7 31 17 46 25 W 1000,2 29 0,0
17.03.2019 11:00:00 6,6 0,2 28 15 - - W 999,4 50 0,0
17.03.2019 10:00:00 5,8 0,7 26 14 - - WNW 999,2 35 0,0
17.03.2019 09:00:00 5,4 -0,1 18 10 - - W 998,4 45 0,0

tt = temperature
td = dewpoint
ff = wind speed
fx = gusts
dd = wind direction
ppp = reduced air pressure
vv = visibility
rr = precipitation

Next stations